Weather in Midoun

Tunisia     33°48′38″N   10°59′25″E
temp.,
°C
wind,
m/s
gust,
m/s
humid.,
%
clouds,
%
prec.,
mm/h
press.,
hPa
HPBL,
m
9 december, thu
thu901:00+15wsw913370 0.0 1014445
04:00+15wsw914390 0.0 1013433
07:00+15w1014430 0.0 1013405
10:00+15w88493 0.0 1015683
13:00+15nw665018 0.0 1014698
16:00+16wnw58514 0.0 10151239
19:00+16nw994290 0.0 10171245
22:00+15nw810466 0.0 1019925
10 december, fri
fri1001:00+14nw79492 0.0 1019777
04:00+14wnw68490 0.0 1019688
07:00+13wsw912505 0.0 1019536
10:00+15wsw1013485 0.0 1019785
13:00+17w1012404 0.0 1017874
16:00+17wsw1112410 0.0 10151005
19:00+16wsw1014485 0.0 1015756
22:00+16wsw111551100 0.0 1015735
11 december, sat
sat1101:00+16wsw11165062 0.0 1013686
04:00+15wsw13175081 0.0 1011583
07:00+15w1218615 0.0 1011605
10:00+16wnw913645 0.0 1013633
13:00+17nw1214566 0.0 10141405
16:00+16nw1517500 0.0 10151344
19:00+14nw13165212 0.0 1018934
22:00+14nw1214513 0.0 10191159
12 december, sun
sun1201:00+12nw911533 0.0 1020887
04:00+12nw810575 0.0 1020766
07:00+12nnw89604 0.0 1022767
10:00+13nnw995830 0.0 10241544
13:00+14nw785538 0.1 10231573
16:00+15nnw79475 0.0 10231889
19:00+15nnw784920 0.0 1025950
22:00+15n784923 0.0 1026968
13 december, mon
mon1301:00+14n66555 0.0 1026814
04:00+13n56600 0.0 1026536
07:00+13nnw55600 0.0 1026528
10:00+14nw55530 0.0 10271046
13:00+14nw55530 0.0 10261135
16:00+14nw33520 0.0 1025836
19:00+14nw22540 0.0 1026296
22:00+13wsw11560 0.0 1026217